EWG234N EDDH-EDDF

Flight info

Callsign EWG234N
Flight time 0h 54m
Altitude 30000
Route AMLUH2G/33 AMLUH M852 DENIX DCT RIMET/N0453F310 T157 KOKEB/N0411F230 T157 KERAX KERAX5A
Aircraft A320/M-SDE3FGHIRWY/LB1

Departure

Time 2026-05-06 16:35
Airport Hamburg Helmut Schmidt Airport (EDDH)

Arrival

Time 2026-05-06 17:29
Airport Frankfurt Main Airport (EDDF)
Time Latitude Longitude Altitude Speed Heading
2026-05-06 15:19 53.63169 10.00362 46 ft 0 kts 87°
2026-05-06 16:16 53.63168 10.00335 46 ft 4 kts 87°
2026-05-06 16:16 53.63168 10.00291 46 ft 4 kts 104°
2026-05-06 16:17 53.63180 10.00256 41 ft 4 kts 154°
2026-05-06 16:17 53.63196 10.00249 45 ft 1 kts 175°
2026-05-06 16:17 53.63198 10.00248 45 ft 0 kts 175°
2026-05-06 16:29 53.63197 10.00248 45 ft 2 kts 175°
2026-05-06 16:29 53.63159 10.00254 45 ft 13 kts 176°
2026-05-06 16:30 53.63076 10.00263 45 ft 11 kts 176°
2026-05-06 16:30 53.63055 10.00250 45 ft 3 kts 212°
2026-05-06 16:30 53.63034 10.00228 45 ft 2 kts 212°
2026-05-06 16:30 53.62994 10.00182 43 ft 11 kts 213°
2026-05-06 16:31 53.62932 10.00115 46 ft 10 kts 213°
2026-05-06 16:31 53.62929 10.00111 46 ft 0 kts 213°
2026-05-06 16:31 53.62894 10.00074 46 ft 8 kts 213°
2026-05-06 16:32 53.62863 10.00015 46 ft 6 kts 242°
2026-05-06 16:32 53.62847 9.99965 46 ft 4 kts 242°
2026-05-06 16:32 53.62842 9.99951 45 ft 0 kts 242°
2026-05-06 16:33 53.62837 9.99933 47 ft 7 kts 242°
2026-05-06 16:34 53.62823 9.99794 47 ft 10 kts 301°
2026-05-06 16:34 53.62887 9.99728 47 ft 13 kts 332°
2026-05-06 16:34 53.63118 9.99530 45 ft 72 kts 333°
2026-05-06 16:34 53.63747 9.98987 42 ft 132 kts 333°
2026-05-06 16:35 53.64724 9.98145 75 ft 174 kts 333°
2026-05-06 16:35 53.65842 9.97168 570 ft 184 kts 336°
2026-05-06 16:35 53.67007 9.96182 1222 ft 191 kts 338°
2026-05-06 16:35 53.68210 9.95181 1750 ft 203 kts 340°
2026-05-06 16:36 53.69589 9.94680 2308 ft 204 kts
2026-05-06 16:36 53.70999 9.94697 3115 ft 203 kts
2026-05-06 16:36 53.72367 9.95110 3795 ft 200 kts 34°
2026-05-06 16:36 53.73226 9.96819 4399 ft 203 kts 69°
2026-05-06 16:37 53.73643 9.99146 5022 ft 209 kts 73°
2026-05-06 16:37 53.74014 10.01534 5695 ft 214 kts 81°
2026-05-06 16:37 53.73941 10.04075 6254 ft 228 kts 103°
2026-05-06 16:37 53.73231 10.06696 6389 ft 259 kts 117°
2026-05-06 16:38 53.72320 10.09389 6502 ft 267 kts 118°
2026-05-06 16:38 53.71395 10.12102 6567 ft 269 kts 118°
2026-05-06 16:38 53.70461 10.14846 6591 ft 270 kts 118°
2026-05-06 16:38 53.69459 10.17539 6586 ft 271 kts 126°
2026-05-06 16:39 53.68130 10.19752 6592 ft 274 kts 142°
2026-05-06 16:39 53.66473 10.21354 6591 ft 277 kts 156°
2026-05-06 16:39 53.64615 10.22310 6593 ft 278 kts 163°
2026-05-06 16:39 53.62740 10.23166 6594 ft 278 kts 162°
2026-05-06 16:40 53.60951 10.23988 7009 ft 285 kts 162°
2026-05-06 16:40 53.59023 10.24870 8030 ft 285 kts 162°
2026-05-06 16:40 53.57126 10.25738 8915 ft 288 kts 162°
2026-05-06 16:40 53.55178 10.26635 9398 ft 290 kts 162°
2026-05-06 16:41 53.53252 10.27520 10216 ft 293 kts 163°
2026-05-06 16:41 53.51256 10.28438 10436 ft 316 kts 163°
2026-05-06 16:41 53.49108 10.29427 10607 ft 338 kts 163°
2026-05-06 16:41 53.46861 10.30457 11072 ft 348 kts 164°
2026-05-06 16:42 53.44527 10.31519 11728 ft 353 kts 164°
2026-05-06 16:42 53.42131 10.32605 12490 ft 354 kts 164°
2026-05-06 16:42 53.39798 10.33656 13231 ft 356 kts 166°
2026-05-06 16:42 53.37391 10.34734 13873 ft 359 kts 167°
2026-05-06 16:43 53.34967 10.35819 14324 ft 362 kts 167°
2026-05-06 16:43 53.32566 10.36897 14899 ft 365 kts 167°
2026-05-06 16:43 53.30094 10.38008 15570 ft 368 kts 167°
2026-05-06 16:43 53.27609 10.39120 16168 ft 371 kts 167°
2026-05-06 16:44 53.25102 10.40237 16745 ft 374 kts 167°
2026-05-06 16:44 53.22574 10.41363 17316 ft 378 kts 167°
2026-05-06 16:44 53.20015 10.42503 17913 ft 382 kts 167°
2026-05-06 16:44 53.17435 10.43655 18447 ft 385 kts 167°
2026-05-06 16:45 53.14873 10.44784 18948 ft 388 kts 169°
2026-05-06 16:45 53.12208 10.45402 19444 ft 389 kts 179°
2026-05-06 16:45 53.09497 10.45242 19965 ft 390 kts 186°
2026-05-06 16:45 53.06784 10.44853 20456 ft 394 kts 186°
2026-05-06 16:46 53.04036 10.44467 20937 ft 397 kts 186°
2026-05-06 16:46 53.01274 10.44090 21415 ft 400 kts 185°
2026-05-06 16:46 52.98495 10.43712 21859 ft 403 kts 185°
2026-05-06 16:46 52.95706 10.43333 22301 ft 406 kts 185°
2026-05-06 16:47 52.92879 10.42948 22745 ft 409 kts 185°
2026-05-06 16:47 52.90036 10.42561 23188 ft 411 kts 185°
2026-05-06 16:47 52.87182 10.42175 23576 ft 413 kts 185°
2026-05-06 16:47 52.84309 10.41786 23932 ft 415 kts 185°
2026-05-06 16:48 52.81426 10.41395 24279 ft 417 kts 185°
2026-05-06 16:48 52.78520 10.41000 24572 ft 421 kts 185°
2026-05-06 16:48 52.75596 10.40600 24920 ft 422 kts 185°
2026-05-06 16:48 52.72661 10.40201 25263 ft 424 kts 186°
2026-05-06 16:49 52.69716 10.39801 25588 ft 426 kts 185°
2026-05-06 16:49 52.66761 10.39399 25905 ft 428 kts 185°
2026-05-06 16:49 52.63790 10.38996 26233 ft 430 kts 185°
2026-05-06 16:49 52.60799 10.38595 26581 ft 432 kts 185°
2026-05-06 16:50 52.57787 10.38195 26909 ft 434 kts 185°
2026-05-06 16:50 52.54780 10.37797 27208 ft 436 kts 186°
2026-05-06 16:50 52.51749 10.37392 27498 ft 437 kts 186°
2026-05-06 16:50 52.48710 10.36983 27782 ft 438 kts 186°
2026-05-06 16:51 52.45663 10.36575 28053 ft 440 kts 186°
2026-05-06 16:51 52.42657 10.36174 28320 ft 441 kts 186°
2026-05-06 16:51 52.39589 10.35764 28584 ft 443 kts 186°
2026-05-06 16:51 52.36508 10.35355 28827 ft 444 kts 186°
2026-05-06 16:52 52.33432 10.34953 29136 ft 443 kts 186°
2026-05-06 16:52 52.30356 10.34550 29477 ft 442 kts 186°
2026-05-06 16:52 52.27294 10.34146 29774 ft 441 kts 186°
2026-05-06 16:53 52.21228 10.33335 29808 ft 436 kts 186°
2026-05-06 16:53 52.15198 10.32534 29808 ft 435 kts 186°
2026-05-06 16:54 52.09236 10.31748 29808 ft 435 kts 186°
2026-05-06 16:54 52.03190 10.30952 29806 ft 434 kts 186°
2026-05-06 16:55 51.97158 10.30162 29798 ft 434 kts 186°
2026-05-06 16:55 51.91187 10.29373 29787 ft 431 kts 187°
2026-05-06 16:56 51.85323 10.28611 29797 ft 419 kts 187°
2026-05-06 16:56 51.79531 10.27859 29795 ft 416 kts 187°
2026-05-06 16:57 51.73800 10.27124 29797 ft 415 kts 187°
2026-05-06 16:57 51.68027 10.26380 29796 ft 415 kts 187°
2026-05-06 16:58 51.62279 10.25637 29792 ft 414 kts 187°
2026-05-06 16:58 51.56547 10.24897 29768 ft 415 kts 187°
2026-05-06 16:59 51.50789 10.24159 29760 ft 416 kts 187°
2026-05-06 16:59 51.45021 10.23420 29763 ft 416 kts 187°
2026-05-06 17:00 51.39370 10.22699 29766 ft 417 kts 187°
2026-05-06 17:00 51.33699 10.21983 29752 ft 417 kts 186°
2026-05-06 17:01 51.27880 10.21604 29756 ft 420 kts 182°
2026-05-06 17:01 51.22012 10.21601 29754 ft 422 kts 182°
2026-05-06 17:02 51.16169 10.21600 29757 ft 423 kts 182°
2026-05-06 17:02 51.10281 10.21509 29743 ft 424 kts 182°
2026-05-06 17:03 51.04402 10.21374 29743 ft 426 kts 182°
2026-05-06 17:03 50.98458 10.21251 29749 ft 428 kts 182°
2026-05-06 17:04 50.92610 10.21154 29760 ft 428 kts 182°
2026-05-06 17:04 50.86630 10.21006 29517 ft 426 kts 188°
2026-05-06 17:04 50.83762 10.20033 29727 ft 420 kts 202°
2026-05-06 17:05 50.81152 10.17996 29785 ft 419 kts 214°
2026-05-06 17:05 50.76980 10.11669 29793 ft 418 kts 234°
2026-05-06 17:06 50.74213 10.03585 29806 ft 419 kts 242°
2026-05-06 17:06 50.71583 9.95387 29794 ft 418 kts 242°
2026-05-06 17:07 50.68955 9.87209 29793 ft 418 kts 242°
2026-05-06 17:07 50.66360 9.79162 29797 ft 419 kts 241°
2026-05-06 17:08 50.63361 9.71317 29786 ft 417 kts 229°
2026-05-06 17:08 50.58944 9.65480 29778 ft 417 kts 210°
2026-05-06 17:09 50.53669 9.61920 29776 ft 418 kts 205°
2026-05-06 17:09 50.51145 9.59680 29773 ft 417 kts 216°
2026-05-06 17:09 50.48973 9.56734 29779 ft 417 kts 226°
2026-05-06 17:09 50.47190 9.53186 29662 ft 420 kts 236°
2026-05-06 17:10 50.45853 9.49131 29372 ft 423 kts 247°
2026-05-06 17:10 50.44966 9.44729 29065 ft 426 kts 252°
2026-05-06 17:10 50.44431 9.41853 28798 ft 427 kts 251°
2026-05-06 17:10 50.43616 9.37526 28398 ft 429 kts 251°
2026-05-06 17:11 50.42785 9.33165 28007 ft 431 kts 251°
2026-05-06 17:11 50.41941 9.28768 27566 ft 432 kts 251°
2026-05-06 17:11 50.41093 9.24389 26701 ft 425 kts 250°
2026-05-06 17:11 50.40188 9.20096 26008 ft 408 kts 249°
2026-05-06 17:12 50.39242 9.15959 25328 ft 400 kts 248°
2026-05-06 17:12 50.38267 9.11882 24606 ft 398 kts 248°
2026-05-06 17:12 50.37301 9.07892 23907 ft 395 kts 248°
2026-05-06 17:12 50.36329 9.03863 23207 ft 394 kts 248°
2026-05-06 17:13 50.35366 8.99832 22479 ft 396 kts 248°
2026-05-06 17:13 50.34411 8.95782 21814 ft 397 kts 248°
2026-05-06 17:13 50.33246 8.91873 21173 ft 396 kts 235°
2026-05-06 17:13 50.31469 8.88779 20566 ft 395 kts 218°
2026-05-06 17:14 50.29091 8.86650 19967 ft 393 kts 200°
2026-05-06 17:14 50.26456 8.85803 19311 ft 394 kts 182°
2026-05-06 17:14 50.23733 8.86305 18668 ft 396 kts 165°
2026-05-06 17:14 50.21269 8.88253 17837 ft 405 kts 142°
2026-05-06 17:15 50.19563 8.91687 17573 ft 400 kts 117°
2026-05-06 17:15 50.18876 8.95825 17432 ft 399 kts 98°
2026-05-06 17:15 50.18470 9.00147 17276 ft 402 kts 104°
2026-05-06 17:15 50.18168 9.04493 16611 ft 407 kts 86°
2026-05-06 17:16 50.18957 9.08664 16349 ft 400 kts 64°
2026-05-06 17:16 50.20623 9.12146 15660 ft 404 kts 41°
2026-05-06 17:16 50.22962 9.14394 15157 ft 400 kts 20°
2026-05-06 17:16 50.25600 9.15703 14647 ft 396 kts 19°
2026-05-06 17:17 50.28033 9.17677 14137 ft 393 kts 36°
2026-05-06 17:17 50.30038 9.20548 13603 ft 391 kts 50°
2026-05-06 17:17 50.31545 9.24119 12988 ft 387 kts 65°
2026-05-06 17:17 50.32437 9.27925 12451 ft 381 kts 78°
2026-05-06 17:18 50.32765 9.31962 11916 ft 375 kts 93°
2026-05-06 17:18 50.32273 9.35920 11383 ft 368 kts 114°
2026-05-06 17:18 50.30949 9.39264 10865 ft 360 kts 135°
2026-05-06 17:18 50.28982 9.41586 10328 ft 352 kts 156°
2026-05-06 17:19 50.26652 9.42594 9780 ft 347 kts 177°
2026-05-06 17:19 50.24291 9.42161 9230 ft 341 kts 199°
2026-05-06 17:19 50.22294 9.40385 8823 ft 321 kts 224°
2026-05-06 17:19 50.21176 9.37573 8615 ft 297 kts 255°
2026-05-06 17:20 50.21114 9.34521 8495 ft 282 kts 277°
2026-05-06 17:20 50.21286 9.31447 8363 ft 281 kts 269°
2026-05-06 17:20 50.21194 9.28444 8235 ft 278 kts 263°
2026-05-06 17:20 50.20998 9.25499 8105 ft 277 kts 262°
2026-05-06 17:21 50.20775 9.22524 7983 ft 276 kts 260°
2026-05-06 17:21 50.20278 9.19684 7872 ft 274 kts 247°
2026-05-06 17:21 50.19570 9.16928 7746 ft 273 kts 248°
2026-05-06 17:21 50.18902 9.14155 7620 ft 273 kts 249°
2026-05-06 17:22 50.18252 9.11376 7492 ft 272 kts 249°
2026-05-06 17:22 50.17604 9.08591 7147 ft 274 kts 249°
2026-05-06 17:22 50.16952 9.05785 6726 ft 274 kts 249°
2026-05-06 17:22 50.16309 9.03019 6468 ft 267 kts 249°
2026-05-06 17:23 50.15702 9.00407 6344 ft 256 kts 249°
2026-05-06 17:23 50.15115 8.97882 6231 ft 244 kts 249°
2026-05-06 17:23 50.14554 8.95468 6089 ft 233 kts 249°
2026-05-06 17:23 50.14007 8.93133 5731 ft 226 kts 249°
2026-05-06 17:24 50.13470 8.90851 5416 ft 225 kts 249°
2026-05-06 17:24 50.12932 8.88566 5114 ft 224 kts 249°
2026-05-06 17:24 50.12409 8.86347 5000 ft 222 kts 249°
2026-05-06 17:24 50.11878 8.84110 4807 ft 227 kts 249°
2026-05-06 17:25 50.11341 8.81860 4433 ft 221 kts 249°
2026-05-06 17:25 50.10803 8.79587 4099 ft 220 kts 249°
2026-05-06 17:25 50.10277 8.77359 3778 ft 220 kts 249°
2026-05-06 17:25 50.09755 8.75151 3475 ft 219 kts 249°
2026-05-06 17:26 50.09228 8.72920 3161 ft 220 kts 250°
2026-05-06 17:26 50.08704 8.70710 2872 ft 211 kts 250°
2026-05-06 17:26 50.08219 8.68663 2550 ft 191 kts 251°
2026-05-06 17:26 50.07780 8.66817 2320 ft 170 kts 252°
2026-05-06 17:27 50.07390 8.65176 2063 ft 155 kts 251°
2026-05-06 17:27 50.07030 8.63658 1842 ft 146 kts 251°
2026-05-06 17:27 50.06683 8.62238 1632 ft 141 kts 251°
2026-05-06 17:27 50.06356 8.60814 1501 ft 140 kts 254°
2026-05-06 17:28 50.06012 8.59389 1209 ft 142 kts 250°
2026-05-06 17:28 50.05647 8.57993 980 ft 137 kts 253°
2026-05-06 17:28 50.05340 8.56595 809 ft 137 kts 253°
2026-05-06 17:28 50.05026 8.55217 631 ft 134 kts 251°
2026-05-06 17:29 50.04702 8.53854 460 ft 135 kts 253°
2026-05-06 17:29 50.04376 8.52500 350 ft 127 kts 248°
2026-05-06 17:29 50.04175 8.51666 350 ft 44 kts 249°
2026-05-06 17:29 50.04122 8.51446 353 ft 20 kts 251°
2026-05-06 17:30 50.04070 8.51237 352 ft 21 kts 247°
2026-05-06 17:30 50.04008 8.51074 350 ft 18 kts 238°
2026-05-06 17:30 50.03940 8.50967 349 ft 15 kts 221°
2026-05-06 17:30 50.03908 8.50924 353 ft 0 kts 221°
2026-05-06 17:31 50.03879 8.50886 349 ft 19 kts 220°
2026-05-06 17:31 50.03795 8.50886 353 ft 15 kts 83°
2026-05-06 17:31 50.03771 8.50953 347 ft 7 kts 133°
2026-05-06 17:31 50.03742 8.51002 345 ft 6 kts 130°
2026-05-06 17:32 50.03726 8.51049 351 ft 4 kts 117°
2026-05-06 17:32 50.03715 8.51085 353 ft 3 kts 117°
2026-05-06 17:32 50.03705 8.51117 349 ft 5 kts 116°
2026-05-06 17:32 50.03690 8.51163 349 ft 4 kts 116°
2026-05-06 17:33 50.03679 8.51198 349 ft 3 kts 116°
2026-05-06 17:33 50.03671 8.51222 351 ft 2 kts 116°
2026-05-06 17:33 50.03653 8.51279 345 ft 10 kts 116°
2026-05-06 17:33 50.03625 8.51371 347 ft 9 kts 116°
2026-05-06 17:34 50.03599 8.51454 354 ft 9 kts 116°
2026-05-06 17:34 50.03552 8.51604 345 ft 19 kts 116°
2026-05-06 17:34 50.03511 8.51772 345 ft 16 kts 94°
2026-05-06 17:34 50.03523 8.51958 350 ft 18 kts 82°
2026-05-06 17:35 50.03534 8.52090 349 ft 11 kts 83°
2026-05-06 17:35 50.03543 8.52204 345 ft 10 kts 83°
2026-05-06 17:35 50.03525 8.52293 350 ft 8 kts 137°
2026-05-06 17:36 50.03488 8.52416 345 ft 6 kts 73°
2026-05-06 17:36 50.03503 8.52489 345 ft 11 kts 76°
2026-05-06 17:36 50.03508 8.52603 349 ft 10 kts 86°
2026-05-06 17:36 50.03518 8.52679 347 ft 9 kts 74°
2026-05-06 17:37 50.03524 8.52710 352 ft 0 kts 72°
2026-05-06 17:37 50.03539 8.52778 353 ft 17 kts 70°
2026-05-06 17:37 50.03574 8.52925 348 ft 12 kts 70°
2026-05-06 17:37 50.03580 8.53029 347 ft 9 kts 122°
2026-05-06 17:38 50.03539 8.53086 346 ft 7 kts 120°
2026-05-06 17:38 50.03542 8.53154 346 ft 6 kts 71°
2026-05-06 17:38 50.03566 8.53254 355 ft 17 kts 69°
2026-05-06 17:38 50.03605 8.53419 348 ft 15 kts 70°
2026-05-06 17:39 50.03640 8.53565 351 ft 14 kts 68°
2026-05-06 17:39 50.03673 8.53695 349 ft 12 kts 69°
2026-05-06 17:39 50.03701 8.53809 349 ft 11 kts 69°
2026-05-06 17:39 50.03726 8.53911 352 ft 9 kts 70°
2026-05-06 17:40 50.03746 8.53998 347 ft 8 kts 69°
2026-05-06 17:40 50.03764 8.54073 350 ft 7 kts 70°
2026-05-06 17:40 50.03780 8.54139 353 ft 7 kts 68°
2026-05-06 17:40 50.03809 8.54269 350 ft 13 kts 89°
2026-05-06 17:41 50.03778 8.54345 348 ft 6 kts 145°
2026-05-06 17:41 50.03743 8.54370 351 ft 5 kts 162°
2026-05-06 17:41 50.03706 8.54401 350 ft 9 kts 135°
2026-05-06 17:41 50.03700 8.54488 349 ft 8 kts 73°
2026-05-06 17:42 50.03717 8.54563 351 ft 7 kts 70°
2026-05-06 17:42 50.03737 8.54646 353 ft 15 kts 69°
2026-05-06 17:42 50.03777 8.54811 346 ft 16 kts 69°
2026-05-06 17:42 50.03818 8.54985 351 ft 18 kts 69°
2026-05-06 17:43 50.03860 8.55160 352 ft 17 kts 69°
2026-05-06 17:43 50.03899 8.55324 353 ft 15 kts 63°
2026-05-06 17:43 50.03933 8.55468 346 ft 13 kts 70°
2026-05-06 17:43 50.03964 8.55594 351 ft 12 kts 69°
2026-05-06 17:44 50.03989 8.55701 346 ft 10 kts 70°
2026-05-06 17:44 50.04026 8.55857 354 ft 21 kts 70°
2026-05-06 17:44 50.04077 8.56067 349 ft 21 kts 70°
2026-05-06 17:44 50.04128 8.56280 353 ft 21 kts 69°
2026-05-06 17:45 50.04181 8.56503 349 ft 21 kts 70°
2026-05-06 17:45 50.04217 8.56653 349 ft 13 kts 69°
2026-05-06 17:45 50.04248 8.56773 348 ft 11 kts 56°
2026-05-06 17:45 50.04309 8.56817 346 ft 8 kts 11°
2026-05-06 17:46 50.04359 8.56832 348 ft 7 kts 11°
2026-05-06 17:46 50.04399 8.56844 348 ft 5 kts 11°
2026-05-06 17:46 50.04448 8.56855 346 ft 10 kts
2026-05-06 17:46 50.04516 8.56879 346 ft 10 kts 13°
2026-05-06 17:47 50.04585 8.56903 349 ft 10 kts 13°
2026-05-06 17:47 50.04652 8.56936 355 ft 10 kts 22°
2026-05-06 17:47 50.04714 8.56979 349 ft 9 kts 24°
2026-05-06 17:47 50.04767 8.57015 349 ft 7 kts 24°
2026-05-06 17:48 50.04809 8.57045 345 ft 6 kts 25°
2026-05-06 17:48 50.04837 8.57076 351 ft 4 kts 65°
2026-05-06 17:48 50.04835 8.57109 352 ft 2 kts 103°
2026-05-06 17:48 50.04830 8.57127 353 ft 2 kts 112°
2026-05-06 17:49 50.04817 8.57171 345 ft 5 kts 114°
2026-05-06 17:49 50.04814 8.57183 353 ft 0 kts 114°